EW1979 Weather Reports


Display with metric or nautical units.
time (UTC)temp
F
wind
direction
speed
MPH
gust
MPH
rain 1hr
in
rain 24hr
in
rain mn
in
humidity
%
barometer
mb
20260906234607 83 65 1.0 0.0 0.00 0.00 0.06 67 1007.8
20260906233104 83 67 0.0 0.0 0.00 0.00 0.06 69 1007.9
20260906231618 82 46 0.0 0.0 0.00 0.00 0.06 73 1008.0
20260906230139 81 46 1.0 0.0 0.00 0.00 0.06 74 1008.2
20260906224502 79 46 1.0 0.0 0.00 0.00 0.06 76 1008.4
20260906221502 78 55 1.0 0.0 0.00 0.00 0.06 78 1009.0
20260906220104 78 61 2.0 0.0 0.00 0.00 0.06 82 1009.2
20260906214504 76 42 2.0 0.0 0.00 0.00 0.06 83 1009.1
20260906213006 75 350 2.0 0.0 0.00 0.00 0.06 85 1009.5
20260906211605 74 17 2.0 0.0 0.00 0.00 0.06 87 1009.7
20260906210004 74 355 3.0 0.0 0.00 0.00 0.06 87 1010.0
20260906204603 74 56 4.0 0.0 0.00 0.00 0.05 87 1010.3
20260906201607 82 5 5.0 0.0 0.00 0.00 0.00 66 1009.7
20260906194616 89 150 3.0 0.0 0.00 0.00 0.00 52 1008.7
20260906193044 88 192 3.0 0.0 0.00 0.00 0.00 54 1009.0
20260906191506 87 136 4.0 0.0 0.00 0.00 0.00 54 1009.2
20260906190004 88 191 3.0 0.0 0.00 0.00 0.00 54 1009.2
20260906184603 89 171 3.0 0.0 0.00 0.00 0.00 53 1009.3
20260906183005 89 136 5.0 0.0 0.00 0.00 0.00 52 1009.5
20260906180003 90 188 4.0 0.0 0.00 0.00 0.00 53 1009.7
20260906174502 88 147 3.0 0.0 0.00 0.00 0.00 55 1010.1
20260906173120 88 223 4.0 0.0 0.00 0.00 0.00 54 1010.5
20260906171504 89 157 3.0 0.0 0.00 0.00 0.00 53 1010.5
20260906164503 87 240 4.0 0.0 0.00 0.00 0.00 57 1010.7
20260906163010 86 315 4.0 0.0 0.00 0.00 0.00 60 1010.7
20260906161502 85 198 4.0 0.0 0.00 0.00 0.00 61 1010.9
20260906160001 84 175 5.0 0.0 0.00 0.00 0.00 63 1010.7
20260906154612 84 157 5.0 0.0 0.00 0.00 0.00 64 1010.6
20260906153006 83 218 4.0 0.0 0.00 0.00 0.00 65 1010.5
20260906151507 83 219 5.0 0.0 0.00 0.00 0.00 66 1010.5
20260906150013 81 161 5.0 0.0 0.00 0.00 0.00 69 1010.3
20260906144507 81 208 5.0 0.0 0.00 0.00 0.00 72 1010.3
20260906143113 79 167 5.0 0.0 0.00 0.00 0.00 74 1010.3
20260906140016 78 205 5.0 0.0 0.00 0.00 0.00 75 1010.1
20260906134603 78 214 4.0 0.0 0.00 0.00 0.00 78 1010.2
20260906133010 77 202 4.0 0.0 0.00 0.00 0.00 81 1010.0
20260906131506 75 184 3.0 0.0 0.00 0.00 0.00 83 1010.0
20260906130006 75 171 3.0 0.0 0.00 0.00 0.00 84 1009.6
20260906124502 74 161 2.0 0.0 0.00 0.00 0.00 84 1009.3
20260906123013 74 151 3.0 0.0 0.00 0.00 0.00 83 1009.3
20260906121607 74 164 2.0 0.0 0.00 0.00 0.00 82 1009.1
20260906114502 74 229 1.0 0.0 0.00 0.00 0.00 83 1008.6
20260906113104 73 207 1.0 0.0 0.00 0.00 0.00 84 1008.4
20260906111607 73 250 0.0 0.0 0.00 0.00 0.00 85 1008.4
20260906110004 72 317 0.0 0.0 0.00 0.00 0.00 86 1008.4
20260906104507 72 337 0.0 0.0 0.00 0.00 0.00 86 1008.1
20260906101608 72 337 0.0 0.0 0.00 0.00 0.00 85 1008.1
20260906094507 73 211 0.0 0.0 0.00 0.00 0.00 84 1007.7
20260906091503 73 226 2.0 0.0 0.00 0.00 0.00 82 1007.7
20260906090139 74 195 2.0 0.0 0.00 0.00 0.00 81 1007.8
20260906084625 74 189 3.0 0.0 0.00 0.00 0.00 81 1008.0
20260906083103 74 212 4.0 0.0 0.00 0.00 0.00 80 1008.0
20260906081504 74 201 3.0 0.0 0.00 0.00 0.00 79 1008.2
20260906080003 75 190 3.0 0.0 0.00 0.00 0.00 79 1008.2
20260906074603 75 185 3.0 0.0 0.00 0.00 0.00 78 1008.4
20260906073003 76 163 4.0 0.0 0.00 0.00 0.00 76 1008.7
20260906071507 76 169 5.0 0.0 0.00 0.00 0.00 75 1008.8
20260906070005 76 166 5.0 0.0 0.00 0.00 0.00 73 1009.2
20260906064603 77 176 4.0 0.0 0.00 0.00 0.00 72 1009.1
20260906063005 77 173 5.0 0.0 0.00 0.00 0.00 72 1009.0
20260906061508 78 156 4.0 0.0 0.00 0.00 0.00 71 1009.3
20260906060008 78 161 5.0 0.0 0.00 0.00 0.00 70 1009.5
20260906054505 78 140 4.0 0.0 0.00 0.00 0.00 69 1009.4
20260906053008 79 121 5.0 0.0 0.00 0.00 0.00 70 1009.1
20260906051504 79 147 7.0 0.0 0.00 0.00 0.00 70 1009.3
20260906050004 80 161 7.0 0.0 0.00 0.00 0.00 69 1009.5
20260906044620 80 163 5.0 0.0 0.00 0.00 0.00 68 1009.4
20260906043002 81 153 7.0 0.0 0.00 0.00 0.00 66 1009.5
20260906040105 82 148 4.0 0.0 0.00 0.00 0.00 58 1009.3
20260906033103 83 126 4.0 0.0 0.00 0.00 0.00 53 1008.9
20260906030003 83 175 2.0 0.0 0.00 0.00 0.00 54 1008.4
20260906024504 83 152 1.0 0.0 0.00 0.00 0.00 55 1008.2
20260906023106 82 106 0.0 0.0 0.00 0.00 0.00 57 1008.1
20260906021506 82 106 0.0 0.0 0.00 0.00 0.00 56 1007.8
20260906020106 83 106 0.0 0.0 0.00 0.00 0.00 55 1007.5
20260906014604 83 103 0.0 0.0 0.00 0.00 0.00 55 1007.4
20260906013104 83 127 1.0 0.0 0.00 0.00 0.00 55 1007.5
20260906010035 85 142 0.0 0.0 0.00 0.00 0.00 52 1007.2
20260906004504 87 122 1.0 0.0 0.00 0.00 0.00 51 1007.3
20260906003105 88 111 2.0 0.0 0.00 0.00 0.00 50 1007.2
20260906001609 89 111 2.0 0.0 0.00 0.00 0.00 49 1006.9
20260906000007 90 116 2.0 0.0 0.00 0.00 0.00 48 1006.8